Temperature
8 7 7 8 8 9 10 10 10 10 11 11 11 11 12 12 12 12 12 12 12 12 12 12 12 12 12 12 12 12 12 12 12 12 12 12 12 12 12 12 12 12 12 12
7 7 8 9 9 9 10 9 10 10 12 11 10 11 12 12 12 12 12 12 12 12 11 11 11 11 11 11 11 12 12 12 12 12 12 12 11 11 11 11 11 11 11 11
7 8 9 9 9 9 9 9 9 10 10 11 10 10 11 11 12 12 12 12 12 11 11 11 11 11 11 11 11 11 11 11 11 11 11 11 11 11 11 11 11 11 11 11
7 8 9 8 8 8 8 9 10 10 9 9 10 9 10 11 11 11 11 11 11 11 11 10 10 10 10 11 11 11 11 11 11 11 11 11 11 10 10 10 10 10 10 10
7 8 8 8 8 9 8 9 9 9 9 8 9 9 9 10 10 10 10 10 10 10 10 9 9 10 10 10 10 10 10 10 10 11 11 10 10 10 10 10 10 10 10 10
7 8 8 8 9 9 9 9 9 9 8 8 9 9 9 9 10 10 9 9 9 9 9 9 9 9 9 9 10 10 10 10 10 10 10 10 10 10 9 9 9 9 9 9
7 7 8 8 8 8 9 7 7 7 7 8 9 9 9 9 10 9 9 8 8 8 8 8 8 8 8 9 9 9 9 9 9 9 9 10 10 10 9 9 9 9 9 9
5 6 7 7 7 7 7 8 7 7 7 8 8 8 8 9 9 9 9 8 8 8 8 8 8 8 8 8 8 8 9 8 9 9 9 9 9 9 9 9 9 9 9 9
5 5 7 7 7 7 7 7 8 7 7 7 8 9 8 8 8 8 8 7 7 7 7 7 7 7 7 7 7 8 8 8 8 8 9 9 9 9 8 8 9 9 9 9
4 4 6 7 7 7 7 7 6 6 7 7 8 8 7 7 7 7 7 7 6 6 6 6 6 6 7 7 7 7 7 7 8 8 8 8 8 8 8 8 8 8 8 8
4 4 4 5 5 5 6 6 6 6 6 7 7 7 8 7 7 7 6 6 6 5 5 5 6 6 6 6 6 7 7 7 7 7 7 7 7 7 7 7 7 7 7 7
4 3 3 4 5 5 5 6 5 5 5 6 6 6 7 6 7 7 6 6 5 5 5 5 5 5 5 6 6 6 6 6 6 7 7 7 7 7 7 7 7 7 7 7
3 3 3 4 4 4 4 4 5 5 5 5 5 5 6 6 6 6 6 5 5 4 4 4 4 4 5 5 5 5 5 6 6 6 6 6 6 6 6 7 6 6 6 6
3 2 2 4 4 3 3 3 4 4 4 4 5 5 5 5 5 5 5 4 4 4 4 3 4 4 4 4 4 4 5 5 5 5 5 5 5 6 6 6 6 6 6 6
2 1 2 2 3 3 3 3 3 3 3 4 4 4 5 5 4 5 4 4 3 3 3 3 3 3 3 3 4 4 4 4 4 4 4 5 5 5 5 5 5 5 5 5
0 1 2 2 3 3 2 3 3 3 3 3 3 3 4 5 5 4 3 3 2 2 2 2 2 2 2 3 3 3 3 3 4 4 4 4 4 4 4 4 4 4 4 4
-0 -0 1 2 3 2 1 2 2 3 3 3 3 3 3 3 3 3 3 2 2 1 1 1 1 1 2 2 2 2 3 3 3 3 3 3 3 3 4 4 4 4 4 4
-1 -1 0 1 1 1 2 2 2 2 1 2 2 2 2 3 3 3 3 2 1 1 1 1 1 1 1 2 2 2 2 2 2 2 2 3 3 3 3 3 3 3 3 3
-1 -1 0 0 1 1 2 1 1 0 0 1 1 1 2 2 2 2 2 1 1 1 0 1 1 1 1 1 1 2 2 2 2 2 2 2 2 2 2 2 2 2 2 2
-1 -1 -1 0 1 1 1 0 0 0 -0 0 1 0 1 1 -0 0 1 1 0 0 0 0 0 0 0 1 1 1 1 1 1 1 1 1 2 2 2 2 2 2 2 2
-2 -2 -1 -1 -0 0 -0 -1 -0 0 0 0 1 0 0 -0 -0 0 0 0 -0 -0 -0 -1 -0 -0 -0 -0 0 0 0 1 1 1 1 1 1 1 1 1 1 1 1 1
-2 -2 -2 -1 -1 -0 -1 -1 -1 -1 -0 -0 -0 -0 -1 -1 -1 -1 -1 -1 -1 -1 -1 -1 -1 -1 -1 -1 -0 -0 -0 0 0 1 1 1 1 1 0 0 0 0 0 0
-2 -2 -2 -2 -1 -1 -1 -1 -1 -1 -1 -1 -1 -1 -1 -2 -1 -1 -1 -1 -2 -2 -2 -2 -2 -1 -1 -1 -1 -1 -1 -0 0 0 0 0 0 0 -0 -0 -0 -0 -0 -0
-3 -2 -2 -3 -2 -1 -1 -1 -1 -1 -2 -2 -2 -2 -2 -2 -2 -2 -2 -2 -2 -2 -2 -2 -2 -2 -2 -2 -2 -1 -1 -1 -0 -0 -0 -0 -1 -1 -1 -1 -1 -1 -1 -0
-2 -3 -3 -3 -3 -1 -1 -1 -1 -2 -2 -2 -2 -2 -2 -2 -2 -3 -3 -3 -3 -3 -3 -3 -2 -2 -2 -2 -2 -2 -1 -1 -1 -1 -1 -1 -1 -1 -1 -1 -1 -1 -1 -1
-2 -3 -3 -3 -2 -3 -2 -1 -2 -2 -2 -2 -2 -3 -3 -3 -3 -3 -3 -3 -3 -3 -3 -3 -3 -3 -2 -2 -2 -2 -2 -2 -2 -2 -2 -2 -2 -2 -2 -2 -2 -2 -2 -2
Wind_Speed
3 3 4 6 7 6 6 6 6 6 6 9 10 9 8 7 7 7 6 7 6 6 5 4 4 4 4 4 5 6 6 6 5 4 3 3 3 3 2 4 5 5 5 6
2 4 4 5 6 6 7 8 7 5 5 6 8 10 9 8 9 8 7 7 7 6 5 4 4 4 3 4 4 4 6 6 5 4 3 3 3 2 2 4 4 5 5 5
2 2 4 5 5 5 6 8 7 5 3 5 5 7 8 6 6 6 6 5 6 6 6 5 4 4 3 4 4 3 4 5 5 5 5 4 3 3 2 2 2 4 5 5
2 3 3 4 5 5 6 6 5 6 4 3 5 5 7 7 7 7 5 4 5 5 5 4 4 3 2 3 3 3 3 4 5 6 6 6 4 3 3 3 3 4 5 5
1 2 3 4 5 4 3 3 4 6 4 3 5 4 5 6 7 7 5 4 3 3 4 3 3 3 2 2 3 3 3 3 4 5 7 6 5 3 3 4 4 4 3 5
2 2 2 3 4 4 3 2 3 3 2 4 6 5 4 6 7 6 5 4 3 3 3 3 3 3 2 3 2 2 3 2 2 4 6 6 7 6 6 5 5 4 3 3
1 1 0 1 2 2 1 2 1 1 2 4 4 3 4 2 3 5 5 5 4 4 4 4 4 3 3 3 2 2 3 2 1 3 4 6 7 7 7 6 6 5 4 3
1 0 1 0 1 2 4 2 1 2 2 2 3 5 2 1 2 3 4 4 4 4 3 3 3 3 3 3 3 3 2 2 2 3 3 4 5 4 4 4 5 5 4 4
2 1 1 1 1 1 1 2 2 1 2 2 3 3 0 3 2 2 3 4 3 2 3 3 3 2 3 3 3 3 3 2 2 3 3 4 4 4 4 4 4 4 4 4
3 2 2 1 1 1 1 1 1 0 1 2 4 4 3 2 2 2 3 3 2 2 2 2 2 2 2 2 2 3 3 3 2 2 3 3 3 3 4 4 4 4 4 4
2 1 2 1 1 2 0 1 1 2 2 2 2 2 1 2 2 3 3 3 3 2 2 1 1 1 2 2 2 2 3 3 3 3 3 3 3 3 3 3 3 4 4 5
2 1 2 1 1 1 1 1 2 2 2 2 1 3 3 3 2 4 3 2 2 2 1 1 1 1 2 1 1 1 3 3 3 3 3 3 3 3 3 3 3 4 4 4
2 0 1 0 1 1 2 3 2 2 1 2 2 3 2 3 3 3 3 2 2 2 1 1 1 1 1 1 1 1 2 2 2 3 3 2 3 3 3 2 2 3 3 3
2 0 2 3 1 1 3 3 4 3 2 4 5 5 4 2 2 2 2 2 2 2 2 2 1 1 1 1 1 1 1 2 2 3 3 2 2 2 2 2 2 3 3 3
1 1 2 4 4 2 3 4 5 6 5 4 4 5 6 3 1 1 2 2 2 2 2 2 2 2 2 2 1 1 1 1 2 2 2 2 1 2 2 2 3 3 3 3
1 1 2 3 3 2 4 5 5 6 6 7 7 8 5 3 2 1 1 1 1 1 1 2 2 2 2 1 1 1 0 0 1 2 1 1 1 2 2 2 2 3 3 3
1 1 1 2 1 2 5 6 6 4 3 4 7 7 2 2 2 1 0 1 0 1 1 1 1 2 2 2 1 1 0 1 1 1 1 1 1 1 2 2 2 3 3 3
2 1 1 1 1 4 5 1 2 4 4 5 5 4 3 2 2 2 1 1 0 1 1 1 1 2 2 2 1 1 0 1 1 1 1 1 1 1 1 2 3 2 2 2
2 2 1 1 2 5 3 1 1 2 4 3 5 5 4 3 3 2 2 2 1 1 1 1 1 1 2 2 1 1 1 1 1 0 1 1 1 2 2 2 2 2 2 2
0 1 1 2 2 4 2 1 2 1 4 3 2 4 3 1 1 3 2 3 2 2 1 1 1 1 2 2 2 1 1 1 0 1 1 1 1 2 2 2 2 2 2 2
2 2 3 3 4 5 1 1 2 2 4 2 1 2 1 1 2 2 2 2 2 2 2 2 2 2 1 1 1 1 1 1 1 1 0 0 1 1 2 2 1 2 2 2
5 4 4 3 5 6 2 3 4 4 2 2 2 2 1 1 2 2 2 2 2 2 2 2 2 2 2 2 2 1 1 1 1 1 0 1 1 1 1 2 1 1 2 2
5 5 4 6 6 2 5 4 2 1 1 1 2 2 2 2 2 1 1 1 2 2 2 2 2 2 2 2 2 1 1 1 1 1 1 1 1 1 1 2 2 2 2 2
4 2 3 4 6 4 3 2 1 1 2 2 2 2 2 2 2 1 1 1 1 2 2 2 1 2 2 3 3 2 2 1 1 2 1 1 2 2 2 1 1 2 2 2
4 5 4 5 4 4 4 4 3 3 2 3 2 2 3 2 2 2 2 2 1 1 2 1 1 2 2 2 2 2 2 2 2 1 1 1 1 2 2 1 1 1 1 2
5 6 6 6 4 4 3 2 2 3 3 3 2 2 2 2 3 2 2 2 1 1 1 1 1 2 2 2 3 3 2 1 2 1 1 1 1 1 2 2 2 3 1 1
Wind_Direction
193 194 204 201 210 231 221 219 227 236 219 213 215 225 223 212 208 213 210 199 191 180 166 152 137 130 139 140 138 144 138 135 128 126 133 134 137 130 115 109 114 116 117 118
189 224 228 212 218 229 223 228 240 242 210 207 215 231 230 217 211 208 205 194 183 165 155 155 140 133 135 139 139 146 146 145 139 139 139 134 133 134 124 110 110 114 114 114
206 235 217 210 219 225 229 227 226 235 242 209 205 236 223 212 207 204 202 190 168 162 159 158 149 142 147 153 152 154 154 151 147 136 125 116 108 109 110 125 132 111 112 111
222 259 216 211 225 227 226 223 230 228 217 221 196 224 217 207 201 199 189 177 168 165 156 151 145 135 152 153 144 151 162 155 150 147 147 148 149 157 167 154 137 118 115 115
246 241 214 226 241 237 215 230 231 229 233 260 224 223 220 195 195 197 186 176 158 143 140 138 139 136 117 111 123 136 152 155 160 159 156 155 154 147 140 134 131 126 111 110
255 270 239 242 259 231 219 208 237 224 202 235 222 209 222 202 202 187 178 164 156 155 147 139 128 122 114 109 111 130 131 140 164 165 161 158 154 150 146 147 145 139 131 115
297 181 250 224 243 238 234 169 170 188 209 234 198 209 236 207 174 168 176 171 166 157 152 152 145 137 140 136 139 141 144 153 168 168 167 162 155 156 160 161 157 151 149 147
345 214 36 341 231 237 235 206 187 203 218 263 199 214 237 220 115 121 140 148 149 151 148 149 147 146 156 151 150 147 143 150 164 161 156 156 152 153 157 156 153 159 163 159
336 285 348 357 323 313 226 220 273 289 280 260 218 201 145 12 70 112 130 125 138 142 145 151 143 141 156 151 155 147 144 143 155 153 143 138 140 143 147 143 150 155 150 143
330 302 300 290 279 321 324 289 324 255 255 251 235 225 214 220 215 156 151 152 137 119 123 126 128 149 161 153 149 142 154 153 145 131 133 132 134 136 144 142 153 149 143 140
334 298 311 25 190 237 269 234 273 259 249 248 234 249 4 185 165 156 156 140 136 125 122 115 108 136 130 126 132 144 154 142 134 123 121 125 136 140 147 153 157 152 146 148
333 316 275 249 306 343 304 248 198 200 259 255 254 274 357 25 77 112 117 110 115 113 98 95 116 114 104 98 108 148 150 145 144 141 136 142 146 145 147 152 152 147 150 150
341 307 292 273 337 8 275 257 241 236 274 254 233 254 355 24 40 80 99 94 98 98 96 102 104 96 90 86 102 114 140 145 138 141 142 140 145 147 152 151 153 151 153 154
348 262 220 229 266 255 261 247 222 200 217 253 235 252 288 333 18 61 82 94 106 108 102 78 51 44 49 56 61 98 128 139 143 141 145 153 162 165 163 158 156 150 147 154
23 246 257 276 287 280 267 252 217 210 226 244 262 252 266 281 303 81 96 92 76 71 65 49 34 28 38 40 36 45 117 141 142 138 149 163 164 167 163 163 162 152 153 161
26 267 293 271 236 252 282 275 242 233 241 248 268 278 287 329 11 42 87 91 56 34 25 29 21 29 27 13 8 19 119 148 136 137 152 151 155 161 158 165 162 148 149 152
204 195 232 244 222 320 272 248 224 221 228 226 243 256 311 349 330 296 16 60 356 17 7 358 354 5 359 345 349 329 176 115 115 135 152 162 164 169 174 172 151 153 161 154
184 192 213 281 1 247 244 38 189 223 255 253 265 282 295 302 329 329 49 88 27 7 348 343 346 353 343 338 340 321 163 137 133 150 170 194 184 187 185 175 162 156 161 158
211 185 205 210 244 266 259 197 149 220 278 267 262 284 305 342 11 347 14 55 74 9 338 329 333 328 337 345 343 359 54 84 102 193 204 206 185 184 190 177 160 151 153 158
175 166 198 212 231 246 250 68 55 66 287 292 263 272 293 11 285 280 5 32 42 25 9 359 3 5 3 349 356 36 61 87 264 261 228 209 198 190 186 172 157 152 158 167
178 206 210 224 235 258 263 205 124 167 255 329 331 283 255 236 246 287 9 23 33 21 13 9 7 6 358 352 19 33 33 350 321 341 2 175 207 200 170 157 154 156 153 148
183 189 196 200 219 247 166 136 183 223 342 358 349 345 352 316 306 344 20 23 18 11 10 8 13 0 358 9 35 40 12 349 5 27 95 163 187 175 150 144 148 152 152 151
202 198 192 201 218 237 167 183 194 42 333 334 337 333 331 306 300 327 347 356 354 353 358 5 11 1 360 6 27 39 354 5 48 94 122 151 138 139 150 148 150 147 147 156
214 202 226 247 251 242 221 227 256 246 246 274 283 286 290 277 279 290 311 322 331 333 344 354 6 7 359 8 18 16 4 18 80 112 117 123 123 127 117 124 138 151 169 169
206 178 218 247 262 281 246 229 238 250 257 268 266 252 250 245 254 250 265 269 283 309 331 346 352 350 350 2 8 0 8 37 68 89 97 102 113 119 106 99 119 168 211 202
198 194 201 230 208 206 241 225 225 229 242 246 251 263 258 233 237 246 258 267 271 290 320 340 344 346 345 358 359 356 9 45 83 86 79 87 105 106 116 112 73 55 71 67
Height
1468 1471 1471 1470 1471 1471 1470 1472 1474 1474 1472 1474 1476 1477 1476 1477 1479 1480 1482 1484 1486 1489 1492 1494 1496 1498 1500 1502 1505 1507 1509 1511 1514 1516 1518 1520 1522 1525 1527 1529 1531 1533 1535 1536
1470 1470 1468 1468 1469 1470 1471 1473 1474 1472 1470 1473 1475 1475 1474 1474 1475 1477 1479 1481 1483 1487 1490 1492 1494 1496 1498 1500 1502 1505 1507 1509 1511 1514 1516 1518 1520 1523 1525 1527 1529 1531 1532 1534
1470 1468 1467 1468 1469 1470 1471 1473 1472 1472 1471 1471 1475 1476 1472 1471 1472 1475 1477 1479 1482 1484 1487 1490 1491 1493 1496 1498 1500 1502 1505 1507 1509 1512 1514 1516 1518 1520 1522 1524 1526 1528 1530 1532
1469 1467 1467 1468 1469 1469 1471 1470 1470 1471 1475 1476 1474 1480 1472 1469 1470 1473 1475 1478 1480 1483 1485 1487 1489 1491 1494 1496 1498 1500 1503 1504 1507 1509 1511 1513 1515 1517 1519 1522 1524 1526 1527 1529
1469 1467 1467 1469 1468 1468 1469 1468 1469 1471 1473 1477 1474 1478 1472 1467 1470 1472 1473 1476 1478 1481 1484 1485 1487 1490 1492 1493 1495 1498 1500 1502 1504 1506 1509 1511 1513 1515 1517 1519 1522 1524 1525 1527
1470 1468 1468 1468 1467 1467 1467 1469 1469 1470 1474 1479 1471 1473 1471 1468 1467 1469 1472 1474 1476 1479 1481 1483 1485 1487 1489 1491 1493 1495 1497 1499 1501 1503 1506 1508 1510 1512 1514 1517 1519 1521 1523 1524
1470 1468 1468 1468 1469 1468 1469 1474 1479 1479 1479 1475 1466 1470 1470 1465 1464 1466 1469 1472 1475 1477 1479 1481 1483 1485 1487 1488 1490 1492 1494 1496 1498 1500 1503 1505 1507 1509 1512 1514 1517 1518 1520 1521
1475 1474 1470 1469 1471 1471 1471 1473 1480 1482 1478 1472 1468 1470 1466 1463 1462 1464 1466 1470 1473 1475 1477 1479 1481 1483 1485 1486 1488 1490 1491 1493 1496 1497 1499 1502 1504 1507 1509 1512 1514 1516 1517 1519
1479 1476 1471 1470 1471 1471 1473 1475 1473 1476 1473 1475 1469 1464 1464 1462 1462 1464 1466 1469 1471 1473 1475 1477 1479 1481 1483 1484 1485 1487 1489 1491 1493 1494 1496 1499 1501 1504 1506 1509 1511 1513 1514 1516
1481 1481 1474 1472 1472 1472 1474 1474 1477 1479 1478 1475 1468 1465 1468 1466 1464 1464 1466 1468 1469 1472 1473 1475 1477 1479 1480 1481 1483 1485 1487 1489 1490 1492 1494 1496 1498 1501 1504 1506 1508 1510 1512 1513
1483 1484 1479 1476 1477 1477 1477 1477 1477 1478 1477 1477 1475 1472 1464 1462 1462 1463 1466 1468 1469 1471 1473 1474 1476 1477 1478 1479 1481 1482 1484 1486 1487 1489 1491 1493 1496 1498 1501 1503 1505 1507 1508 1510
1484 1485 1484 1479 1477 1476 1477 1477 1479 1483 1481 1476 1478 1478 1464 1463 1462 1463 1466 1468 1469 1471 1472 1473 1475 1475 1476 1477 1478 1480 1481 1483 1485 1487 1489 1491 1493 1495 1498 1499 1502 1504 1505 1507
1485 1487 1486 1481 1484 1482 1481 1479 1479 1480 1481 1479 1479 1478 1466 1464 1463 1464 1466 1468 1469 1470 1472 1472 1473 1473 1474 1475 1476 1477 1479 1480 1483 1485 1487 1488 1490 1492 1494 1496 1498 1500 1502 1503
1486 1489 1489 1485 1482 1483 1483 1481 1480 1481 1484 1480 1475 1474 1469 1467 1466 1466 1467 1468 1469 1470 1471 1471 1471 1471 1472 1473 1474 1475 1477 1479 1481 1482 1483 1485 1487 1489 1491 1493 1494 1496 1498 1500
1488 1490 1487 1484 1481 1481 1482 1481 1480 1481 1480 1479 1473 1471 1468 1467 1467 1467 1468 1468 1469 1469 1470 1470 1470 1470 1470 1471 1472 1473 1475 1476 1478 1479 1480 1482 1484 1486 1488 1489 1491 1492 1494 1496
1489 1490 1487 1484 1480 1480 1481 1479 1477 1478 1477 1476 1474 1472 1467 1467 1466 1467 1467 1468 1468 1469 1469 1469 1469 1469 1469 1470 1470 1471 1472 1474 1475 1476 1477 1479 1481 1482 1484 1485 1487 1488 1490 1492
1490 1492 1489 1483 1480 1480 1483 1477 1476 1475 1473 1474 1473 1470 1466 1467 1467 1467 1467 1467 1468 1468 1468 1468 1467 1467 1468 1468 1468 1469 1469 1471 1472 1473 1474 1475 1477 1479 1480 1482 1483 1485 1486 1488
1491 1491 1489 1486 1486 1490 1476 1472 1472 1473 1472 1471 1469 1468 1468 1467 1467 1466 1467 1467 1467 1467 1466 1466 1465 1465 1465 1466 1466 1467 1467 1468 1469 1469 1470 1472 1474 1475 1477 1478 1480 1481 1482 1484
1488 1489 1488 1489 1487 1480 1474 1473 1473 1474 1473 1470 1469 1467 1467 1467 1466 1466 1466 1465 1465 1465 1465 1465 1464 1463 1463 1463 1463 1464 1464 1465 1465 1466 1467 1469 1470 1472 1473 1474 1475 1477 1479 1480
1488 1488 1490 1487 1487 1482 1475 1474 1472 1475 1475 1469 1467 1467 1467 1466 1468 1467 1465 1464 1464 1464 1464 1463 1462 1461 1461 1461 1461 1461 1461 1462 1462 1463 1464 1466 1467 1468 1470 1471 1472 1474 1475 1477
1491 1490 1490 1488 1486 1478 1475 1473 1473 1479 1474 1468 1466 1466 1466 1466 1467 1466 1464 1464 1463 1463 1462 1461 1461 1460 1460 1459 1459 1459 1458 1459 1459 1460 1461 1462 1464 1465 1467 1468 1469 1471 1472 1473
1487 1487 1488 1486 1485 1480 1472 1472 1474 1471 1468 1467 1466 1466 1466 1465 1465 1464 1463 1462 1462 1461 1461 1460 1459 1458 1458 1458 1457 1456 1456 1456 1456 1457 1458 1460 1461 1463 1464 1465 1466 1468 1469 1470
1480 1479 1478 1479 1476 1469 1468 1467 1467 1467 1467 1466 1466 1466 1465 1464 1463 1462 1462 1461 1461 1460 1459 1459 1458 1457 1457 1456 1456 1455 1454 1454 1454 1455 1456 1457 1459 1460 1461 1462 1463 1464 1466 1467
1474 1473 1474 1473 1468 1466 1466 1465 1465 1465 1465 1464 1464 1464 1463 1462 1462 1461 1461 1460 1460 1459 1458 1457 1456 1456 1455 1455 1454 1453 1453 1453 1453 1453 1454 1455 1456 1457 1458 1459 1460 1461 1462 1464
1468 1471 1470 1469 1465 1464 1462 1462 1462 1462 1462 1462 1462 1461 1461 1460 1460 1459 1459 1458 1458 1457 1457 1456 1455 1454 1454 1453 1452 1452 1451 1451 1451 1451 1452 1453 1454 1454 1455 1457 1458 1459 1460 1461
1462 1464 1466 1462 1460 1460 1459 1459 1459 1459 1459 1459 1459 1458 1458 1458 1458 1458 1457 1457 1456 1456 1455 1454 1454 1453 1452 1452 1451 1450 1450 1450 1449 1449 1450 1451 1452 1452 1453 1454 1455 1457 1458 1459